Syahrian Santoso

Scout - Persebaya
22 Feb 2028
Dienstag
Verarbeitung

Persönlichkeit

Anpassungsfähigkeit (5) Ehrgeiz (19) Kontroverse (4) Loyalität (16) Druck (8) Professionalität (10) Fairness (6) Temperament (7)

Profil

Trainerstil Demokratisch
Lizenz Kontinentale B
Entschlossenheit 9
Menschenführung 9
Motivation 7
Disziplin 3
Arbeitszufriedenheit
100%
Ermüdung
0%
Rolle Scout
Gehalt 29.6K p/W
Vertrag 14.03.2030

Leistung

Verhalten Gut
Trainingseffektivität
36%
Spielerentwicklung
45%
Verletzungsprävention
30%
Taktische Umsetzung
20%

Letzte Ereignisse

Spieler begutachtet jetzt
Nahm an einer Scouting-Besprechung teil 7T her
Spieler begutachtet 7T her
Spieler begutachtet 7T her
Spieler begutachtet 7T her
Spieler begutachtet 7T her
Spieler begutachtet 7T her
Spieler begutachtet 7T her

Aktuell beobachtet

235
Spieler Verein Status Fähigkeit Vertrauen Beobachtet Zuletzt beobachtet Letzte Stimme
Ilja Ishkov Ural Aktiv 112 / 110 40% 2 21.02.2028 -
Emanuele Schimmenti Potenza Aktiv 131 / 121 40% 1 21.02.2028 -
Samuele Vitale Ascoli Aktiv 113 / 122 40% 1 21.02.2028 -
Filippo Manfrin Arzignano Aktiv 106 / 109 40% 1 21.02.2028 -
Brenner Santa Clara Aktiv 124 / 116 40% 2 19.02.2028 -
Khetag Khosonov Shinnik Aktiv 118 / 115 40% 1 19.02.2028 -
Peru Nolaskoain Eibar Aktiv 105 / 130 40% 1 18.02.2028 -
Carlos Fernández Oviedo Aktiv 135 / 112 40% 1 18.02.2028 -
Gyan de Regt Excelsior Aktiv 106 / 124 40% 1 17.02.2028 -
Nikolay Giorgobiani Fakel Aktiv 102 / 118 40% 1 16.02.2028 -
Doniyor Abdumannopov Andijon Aktiv 121 / 106 40% 1 16.02.2028 -
Sergey Volkov Rodina Aktiv 113 / 112 40% 1 15.02.2028 -
Sheikh Sibi Virtus Verona Aktiv 88 / 108 40% 1 15.02.2028 -
Maxime Sivis Orenburg Aktiv 127 / 118 40% 1 15.02.2028 -
Lorenzo Carissoni Padova Aktiv 143 / 130 40% 1 15.02.2028 -
Alexandr Korotkov Rotor Aktiv 100 / 100 40% 2 14.02.2028 -
Diogo Calila Santa Clara Aktiv 134 / 97 40% 1 14.02.2028 -
Vasily Cherov Ufa Aktiv 100 / 96 40% 1 12.02.2028 -
Sere Matsumura Shonan Bellmare Aktiv 125 / 116 40% 1 12.02.2028 -
Martin Kramarič Krylya Sovetov Aktiv 113 / 123 40% 1 12.02.2028 -
Eldar Ćivić Baltika Aktiv 133 / 127 40% 1 12.02.2028 -
Maxim Sidorov Akhmat Grozny Aktiv 103 / 115 40% 1 10.02.2028 -
Iago Borduchi Bahia Aktiv 136 / 121 40% 1 10.02.2028 -
Santiago Corbo Miramar Misiones Aktiv 125 / 109 40% 2 09.02.2028 -
Miroslav Bogosavac Akhmat Grozny Aktiv 115 / 129 40% 2 09.02.2028 -
Ramazan Gadjimuradov Chelyabinsk Aktiv 118 / 116 40% 1 09.02.2028 -
Sam Curtis Cambridge United Aktiv 123 / 121 40% 1 09.02.2028 -
Yegor Smirnov Chaika Aktiv 101 / 93 40% 1 07.02.2028 -
Anders Hagelskjær Wycombe Wanderers Aktiv 103 / 131 40% 1 06.02.2028 -
Nicolás Garayalde Liverpool Montevideo Aktiv 121 / 123 40% 1 04.02.2028 -
Matt Clarke Derby County Aktiv 150 / 142 40% 1 03.02.2028 -
Luca Connell Barnsley Aktiv 104 / 130 40% 1 02.02.2028 -
Julián Cosi Madryn Aktiv 105 / 122 40% 3 01.02.2028 -
Enzo Martínez Almagro Aktiv 122 / 109 40% 1 01.02.2028 -
Brahian Cuello Unión de Santa Fe Aktiv 127 / 118 40% 2 31.01.2028 -
Jefferson Persis Aktiv 85 / 73 48% 1 31.01.2028 -
Gerónimo Tomasetti Temperley Aktiv 103 / 95 40% 1 31.01.2028 -
Emmanuel Gómez Riga Alvarado Aktiv 127 / 115 40% 3 30.01.2028 -
Lucas Acosta Aldosivi Aktiv 136 / 133 40% 1 30.01.2028 -
Radovan Pankov Persija Aktiv 98 / 122 40% 1 29.01.2028 -
Alejandro Molina Tristán Suárez Aktiv 111 / 103 40% 1 29.01.2028 -
Iván Arboleda Sarmiento Aktiv 117 / 110 40% 7 25.01.2028 -
Facundo Lemos Artigas Aktiv 75 / 109 40% 1 25.01.2028 -
Fernando Bersano Madryn Aktiv 115 / 108 40% 1 25.01.2028 -
Maximiliano Luayza Koot Tristán Suárez Aktiv 103 / 127 40% 1 25.01.2028 -
Santiago Sala Güemes Aktiv 107 / 125 40% 3 24.01.2028 -
Rodrigo Melo Estudiantes Aktiv 104 / 105 40% 1 24.01.2028 -
Franco Benítez Temperley Aktiv 115 / 109 40% 1 22.01.2028 -
Ramón González Almirante Brown Aktiv 114 / 118 40% 1 22.01.2028 -
Matías Viguet Maipú Aktiv 132 / 105 40% 1 20.01.2028 -
Estanislao Jara Madryn Aktiv 119 / 110 40% 1 20.01.2028 -
Gonzalo Asis Almagro Aktiv 105 / 120 40% 1 20.01.2028 -
Matías Ruiz Díaz Estudiantes Aktiv 127 / 121 40% 1 20.01.2028 -
Matías Bazzi Talleres Aktiv 106 / 93 40% 1 19.01.2028 -
Ian Pérez Defensores Aktiv 90 / 100 40% 1 19.01.2028 -
Leonardo Marson Gubbio Aktiv 133 / 96 40% 1 18.01.2028 -
David Sangaré Ryazan Aktiv 106 / 98 40% 1 18.01.2028 -
Duvan Rangel La Equidad Aktiv 154 / 146 40% 2 15.01.2028 -
Milan Ristovski Bhayangkara Presisi Aktiv 96 / 111 40% 2 14.01.2028 -
Luis Olivera Defensores Unidos Aktiv 97 / 114 40% 2 14.01.2028 -
Gianluca Pugliese Güemes Aktiv 125 / 120 40% 5 13.01.2028 -
Diogo Guzmán Montevideo City Torque Aktiv 109 / 101 40% 4 13.01.2028 -
Facundo Ardiles Estudiantes Aktiv 96 / 96 40% 1 12.01.2028 -
Santiago Vera Almirante Brown Aktiv 119 / 116 40% 1 12.01.2028 -
Iñaki Larthirigoyen San Telmo Aktiv 138 / 118 40% 1 11.01.2028 -
Johan Campaña Patriotas Aktiv 105 / 114 40% 1 09.01.2028 -
Thijmen Goppel Bali United Aktiv 127 / 109 40% 1 09.01.2028 -
Jhoao Rodríguez Deportes Quindio Aktiv 114 / 101 40% 1 08.01.2028 -
Federico Versaci Talleres Aktiv 101 / 96 40% 2 07.01.2028 -
Diky Indrayana Madura United Verloren 90 / 79 48% 1 07.01.2028 -
Facundo Heredia Patronato Aktiv 97 / 120 40% 1 07.01.2028 -
Facundo Nadalín San Martín SJ Aktiv 109 / 130 40% 1 06.01.2028 -
Augusto Berrondo Tristán Suárez Aktiv 101 / 118 40% 5 05.01.2028 -
Ramiro Balbuena Nueva Chicago Aktiv 110 / 109 40% 1 05.01.2028 -
Cristian Graciano Junior Aktiv 122 / 132 40% 1 04.01.2028 -
Braian Aranda Agropecuario Argentino Aktiv 105 / 112 40% 1 04.01.2028 -
Esteban da Silva Racing Aktiv 110 / 100 40% 2 30.12.2027 -
Luka Čumić PSM Aktiv 89 / 100 40% 4 30.12.2027 -
Alan Bonansea Colón Aktiv 122 / 93 40% 3 29.12.2027 -
Erik Botheim Talleres Aktiv 110 / 122 40% 1 29.12.2027 -
Said Aliev Rotor Aktiv 113 / 103 40% 2 28.12.2027 -
Iuri Tavares NK Varazdin Aktiv 129 / 108 40% 1 28.12.2027 -
Santiago Rodríguez Gimnasia y Esgrima Aktiv 131 / 115 40% 2 27.12.2027 -
Axel Pérez NK Domzale Aktiv 105 / 110 40% 3 27.12.2027 -
Nicolás Ferreyra Gimnasia y Esgrima Aktiv 95 / 114 40% 3 26.12.2027 -
Mauro Valiente Estudiantes Aktiv 119 / 118 40% 2 26.12.2027 -
Ayman Sellouf Persija Aktiv 96 / 107 40% 3 25.12.2027 -
Lucas Carrizo Plaza Colonia Abgelehnt 106 / 120 40% 3 25.12.2027 Ablehnen
Santiago Apa All Boys Aktiv 96 / 123 40% 2 23.12.2027 -
Agustín Gallo Tristán Suárez Abgelehnt 130 / 113 40% 5 23.12.2027 Ablehnen
Kacper Bieszczad Lechia Aktiv 122 / 106 40% 4 21.12.2027 -
Elia Boseggia Novara Aktiv 131 / 117 40% 2 21.12.2027 -
Franco Rivasseau Patronato Aktiv 101 / 117 40% 3 20.12.2027 -
Matteo Sorzi Carpi Aktiv 106 / 124 40% 1 20.12.2027 -
Gustavo Viera Cerro Largo Aktiv 100 / 85 40% 2 18.12.2027 -
Roberto Ramírez Godoy Cruz Aktiv 122 / 131 40% 5 16.12.2027 -
Andrew Jung Persib Aktiv 105 / 105 40% 4 16.12.2027 -
Patrik Horvat Dugopolje Aktiv 90 / 117 40% 1 14.12.2027 -
Oswaldo Valencia Arema Aktiv 95 / 103 40% 2 13.12.2027 -
Jonás Acevedo Instituto Aktiv 126 / 122 40% 1 13.12.2027 -
Rostislav Soldatenko Torpedo Moscow Aktiv 99 / 107 40% 3 11.12.2027 -
Timur Magomedov Dinamo Makhachkala Aktiv 112 / 107 40% 1 11.12.2027 -
Riccardo Gagno Vicenza Aktiv 115 / 114 40% 2 08.12.2027 -
Renzo Reynaga Patronato Aktiv 118 / 97 40% 2 08.12.2027 -
Kerfala Cissoko Rodina Aktiv 115 / 112 40% 1 08.12.2027 -
Tomás Aranda Boca Juniors Aktiv 129 / 137 40% 3 06.12.2027 -
Agustín Obregón River Plate Aktiv 127 / 123 40% 2 06.12.2027 -
Nicolás Heiz Maipú Aktiv 120 / 119 40% 2 02.12.2027 -
Joaquín Bigo Tristán Suárez Aktiv 119 / 104 40% 4 30.11.2027 -
Nahuel Galardi Maipú Aktiv 106 / 105 40% 2 30.11.2027 -
Sebastián Cocimano Nueva Chicago Aktiv 119 / 112 40% 3 23.11.2027 -
Anton Fase PSIM Aktiv 100 / 101 40% 1 22.11.2027 -
Matías Borgogno San Martín SJ Aktiv 124 / 139 40% 4 21.11.2027 -
Marvin Illary Helsingborg Aktiv 104 / 82 40% 1 21.11.2027 -
Lukas Gausdal IK Start Aktiv 123 / 127 40% 1 21.11.2027 -
Kevin Isa Luna Central Norte Aktiv 93 / 123 40% 1 20.11.2027 -
Abel Argañaraz Gimnasia y Esgrima Aktiv 102 / 87 40% 2 19.11.2027 -
Onuorah Onyedika Kun Khalifat Aktiv 82 / 71 40% 1 17.11.2027 -
Matías Canedo Rampla Juniors Aktiv 94 / 76 40% 1 17.11.2027 -
Georgy Melkadze Akhmat Grozny Aktiv 106 / 105 40% 1 15.11.2027 -
Federico Álvarez Atlanta Aktiv 109 / 111 40% 2 14.11.2027 -
Carlos Torres Orenburg Aktiv 114 / 101 40% 1 12.11.2027 -
Samuel Posada Leones Aktiv 77 / 78 40% 2 11.11.2027 -
Alexis Orellano San Telmo Aktiv 90 / 92 40% 1 11.11.2027 -
Mauro Casoli Talleres Aktiv 123 / 108 40% 2 08.11.2027 -
Javier Martínez Almirante Brown Aktiv 115 / 95 40% 3 07.11.2027 -
Vukašin Vraneš Persis Aktiv 85 / 86 40% 2 06.11.2027 -
Nahuel Suárez La Luz Aktiv 97 / 125 40% 3 06.11.2027 -
Jovan Milosavljević Kalmar FF Aktiv 92 / 116 40% 1 05.11.2027 -
Juan Rocca Gimnasia y Tiro Aktiv 93 / 118 40% 1 04.11.2027 -
Joel Kojo Navbahor Aktiv 105 / 114 40% 3 01.11.2027 -
Gianluca Saro Foggia Aktiv 119 / 110 40% 1 30.10.2027 -
Matías Tissera Instituto Aktiv 123 / 108 40% 2 29.10.2027 -
Nermin Haljeta PSIM Aktiv 114 / 113 40% 3 27.10.2027 -
Nahuel Pezzini Arsenal Aktiv 101 / 102 40% 1 25.10.2027 -
Steven Alfred Torpedo-BelAZ Aktiv 91 / 93 40% 4 24.10.2027 -
Juan David Rueda Alianza Petrolera Aktiv 112 / 109 40% 1 21.10.2027 -
Stanislav Kleschuk Gomel Aktiv 104 / 104 40% 2 18.10.2027 -
Matías Dufour Sportivo Trinidense Aktiv 126 / 116 40% 1 18.10.2027 -
Celías Ingenthron Vélez Aktiv 102 / 108 40% 1 18.10.2027 -
Gustavo Rodriguez Valledupar Aktiv 85 / 95 40% 2 16.10.2027 -
Jort van der Sande Bali United Aktiv 96 / 105 40% 2 16.10.2027 -
Daniel Gomez Valledupar Aktiv 69 / 81 40% 1 16.10.2027 -
Tiziano Noriega Tristán Suárez Aktiv 94 / 91 40% 1 16.10.2027 -
Misael Sosa Godoy Cruz Aktiv 116 / 106 40% 4 14.10.2027 -
Oleksandr Saputin Poltava Aktiv 136 / 135 40% 2 10.10.2027 -
Alejo Medina Agropecuario Argentino Aktiv 103 / 110 40% 1 10.10.2027 -
Evgeniy Malashevich Dinamo Brest Aktiv 96 / 103 40% 1 10.10.2027 -
Robby McCrorie NK Varazdin Aktiv 123 / 127 40% 1 07.10.2027 -
Italo Espinoza San Martín Aktiv 127 / 125 40% 1 04.10.2027 -
Facundo Vila Estudiantes Aktiv 88 / 100 40% 2 03.10.2027 -
Marius Ulla Stabaek Aktiv 80 / 83 40% 2 02.10.2027 -
Nicolás Sumavil Platense Aktiv 136 / 127 40% 2 26.09.2027 -
Tomás Lingua Rentistas Aktiv 108 / 88 40% 2 21.09.2027 -
Ignacio Chicco Aldosivi Aktiv 123 / 124 40% 1 19.09.2027 -
Nicolás Nocetti Newell's Old Boys Aktiv 92 / 102 40% 1 19.09.2027 -
Bogdan Ovsyannikov Orenburg Aktiv 125 / 103 40% 2 14.09.2027 -
Marco Miori Alvarado Aktiv 96 / 99 40% 2 14.09.2027 -
Matías Tagliamonte Racing Club Aktiv 125 / 102 40% 1 13.09.2027 -
Ramiro Jara Racing Aktiv 87 / 102 40% 1 09.09.2027 -
Tiago Gordillo San Miguel Aktiv 72 / 81 40% 1 06.09.2027 -
Ángel Aguayo Sol de America Aktiv 90 / 82 40% 2 04.09.2027 -
Joshua Oluwayemi Colchester United Aktiv 84 / 118 40% 1 04.09.2027 -
Matías Arias Vélez Aktiv 95 / 105 40% 1 04.09.2027 -
Lucas Camejo River Plate Aktiv 93 / 80 40% 1 01.09.2027 -
Mauro Carrizo Atlético Tucumán Aktiv 114 / 97 40% 2 30.08.2027 -
Gonzalo Córdoba Adelaide United Aktiv 116 / 109 40% 1 27.08.2027 -
Cristian Rivas Bogota Aktiv 87 / 105 40% 1 25.08.2027 -
Mauro Schönfeld Morón Aktiv 129 / 128 40% 1 22.08.2027 -
Mohamed Camara Asante Kotoko Aktiv 86 / 105 40% 1 16.08.2027 -
Franco Herrera Viitorul Aktiv 114 / 108 40% 1 16.08.2027 -
Darryl Bakola Padova Aktiv 117 / 113 40% 1 14.08.2027 -
Felipe Serrés Wanderers Aktiv 75 / 91 40% 1 14.08.2027 -
Juan Peñaloza Independiente Medellin Aktiv 98 / 129 40% 2 11.08.2027 -
Roy Levy Hapoel Beer Sheva Aktiv 107 / 119 40% 1 11.08.2027 -
Diego Vargas San Marcos de Arica Aktiv 96 / 100 40% 1 10.08.2027 -
Leandro Martins Benfica Aktiv 85 / 88 40% 1 07.08.2027 -
Randall Rodríguez River Plate Aktiv 136 / 117 40% 1 02.08.2027 -
Nelson Espinoza Union La Calera Aktiv 119 / 113 40% 1 01.08.2027 -
Omar Sowe IBV Aktiv 110 / 110 40% 1 30.07.2027 -
Joaquín Mendive Tristán Suárez Aktiv 102 / 118 40% 2 29.07.2027 -
Ádám Varga Ferencvaros Aktiv 117 / 121 40% 1 29.07.2027 -
Juan Cruz Carranza Nueva Chicago Aktiv 79 / 99 40% 1 25.07.2027 -
Miguel Vargas Universitario Aktiv 119 / 124 40% 1 20.07.2027 -
Miguel San Román Cultural Leonesa Aktiv 119 / 93 40% 1 20.07.2027 -
Destiny Efosa Egharevba Picerno Aktiv 94 / 108 40% 1 01.07.2027 -
Kianz Froese Semen Padang Aktiv 119 / 95 40% 3 30.06.2027 -
Weibmar Asprilla Independiente Medellin Aktiv 113 / 107 40% 1 30.06.2027 -
Nicolás Moreno San Martín Aktiv 95 / 96 40% 1 30.06.2027 -
Ilja Tuseev Chelyabinsk Aktiv 106 / 102 40% 1 28.06.2027 -
Alexandr Degtev Orenburg Aktiv 113 / 116 40% 2 27.06.2027 -
Ólafur Kristófer Helgason Fylkir Aktiv 96 / 116 40% 1 27.06.2027 -
Maxim Belov Dinamo Brest Aktiv 98 / 95 40% 1 25.06.2027 -
Islam Imamov SKA Khabarovsk Aktiv 102 / 100 40% 1 23.06.2027 -
Anderson Pafos Aktiv 104 / 93 40% 2 28.05.2027 -
Santiago Silva CFR Cluj Aktiv 126 / 115 40% 1 27.05.2027 -
Sergio Castel Persik Aktiv 120 / 124 40% 3 25.05.2027 -
Moussa Sidibé Bhayangkara Presisi Aktiv 105 / 90 40% 1 25.05.2027 -
Naoufel Zerhouni Persib Aktiv 124 / 109 40% 2 23.05.2027 -
Javier Vallejos Central Córdoba SdE Aktiv 86 / 105 40% 1 22.05.2027 -
Danilo Santacruz Madura United Aktiv 102 / 118 40% 3 20.05.2027 -
Riquelme Madura United Aktiv 90 / 110 40% 2 17.05.2027 -
Uilliam Barros Persib Aktiv 116 / 96 40% 1 16.05.2027 -
Razhab Magomedov Dinamo Makhachkala Aktiv 96 / 116 40% 3 15.05.2027 -
Diego Campos Bali United Aktiv 113 / 108 40% 1 13.05.2027 -
Jhon Aponza Boca Juniors Aktiv 95 / 100 40% 1 13.05.2027 -
Martin Zlomislić Qarabag Aktiv 125 / 104 40% 3 12.05.2027 -
Ruslan Apekov Torpedo Moscow Aktiv 100 / 97 40% 2 11.05.2027 -
Dalberto Arema Aktiv 111 / 98 40% 1 09.05.2027 -
Alexandr Saplinov Volga Aktiv 96 / 96 40% 1 02.05.2027 -
Gustavo França Arema Aktiv 117 / 97 40% 1 02.05.2027 -
Lucas Ruiz Ferro Carril Oeste Aktiv 98 / 118 40% 2 01.05.2027 -
Kaio Eduardo Thun Aktiv 114 / 115 40% 2 26.04.2027 -
Enzo Taborda Independiente Aktiv 101 / 106 40% 1 12.04.2027 -
Ilja Safronov Rotor Aktiv 109 / 90 40% 1 11.04.2027 -
Augusto Lotti Platense Aktiv 135 / 128 40% 1 04.04.2027 -
Jurica Poldrugač Rudes Aktiv 108 / 104 40% 2 31.03.2027 -
Serhii Sukhanov Obolon Aktiv 91 / 92 40% 1 28.03.2027 -
Tomás Ángel America de Cali Aktiv 123 / 111 40% 1 28.03.2027 -
Bruno Cabrera Lanús Aktiv 133 / 116 40% 1 27.03.2027 -
Fabricio Hass Central Norte Aktiv 122 / 114 40% 1 18.03.2027 -
Rafael Struick Dewa United Aktiv 91 / 92 40% 1 15.03.2027 -
Sávio PSM Aktiv 87 / 93 40% 1 15.03.2027 -
Alexey Kuznetsov Leningradets Aktiv 108 / 102 40% 1 15.03.2027 -
Lorenzo Cordaro Pergolettese Aktiv 114 / 88 40% 1 14.03.2027 -
David Karaev KAMAZ Aktiv 91 / 102 40% 1 09.03.2027 -
Gamid Agalarov Dinamo Makhachkala Aktiv 97 / 104 40% 1 09.03.2027 -
Lucas Machado Defensor Sporting Aktiv 92 / 91 40% 1 06.03.2027 -
Igor Rodrigues Persita Aktiv 118 / 107 40% 1 04.03.2027 -
Chinonso Offor Baltika Aktiv 96 / 98 40% 2 28.02.2027 -
Thomas Amang Rubin Aktiv 106 / 100 40% 1 19.02.2027 -
Midana Cassamá Portimonense Aktiv 114 / 99 40% 1 18.02.2027 -
Serder Serderov Dinamo Makhachkala Aktiv 115 / 89 40% 1 14.02.2027 -
Hazem Mastouri Dinamo Makhachkala Aktiv 103 / 106 40% 1 13.02.2027 -
Ben Pearson Stoke City Aktiv 103 / 105 40% 1 01.08.2026 -